Sheridan, WY (82801)

3:34 PM MST on February 11, 2016 (GMT -0700)
South Sheridan | | Change Station
CLOSE
Current Station
Personal Weather Station
Location: Sheridan, WY
Elevation: 3770 ft
Nearby Weather Stations

Elev 3770 ft 44.79 °N, 106.95 °W | Updated 13 seconds ago

Clear
Clear
57.0 °F
Feels Like 57.0 °F
N
7.6
Wind Variable Wind from NNW
Gusts 9.8 mph

Today
High -- | Low -- °F
--% Chance of Precip.
Yesterday
High -- | Low -- °F
Precip. -- in
Pressure 30.14 in
Visibility -9999.0 miles
Clouds Clear
Dew Point 24 °F
Humidity 28%
Rainfall 0.00 in
Snow Depth Not available.
7:14 AM 5:30 PM
Waxing Crescent, 15% visible
METAR KSHR 112153Z AUTO 33022G31KT CLR 13/M04 A3013 RMK AO2 PK WND 33031/2152 SLP205 T01331044 $
Pressure 30.14 in
Visibility -9999.0 miles
Clouds Clear
Dew Point 24 °F
Humidity 28%
Rainfall 0.00 in
Snow Depth Not available.
7:14 AM 5:30 PM
Waxing Crescent, 15% visible
METAR KSHR 112153Z AUTO 33022G31KT CLR 13/M04 A3013 RMK AO2 PK WND 33031/2152 SLP205 T01331044 $

10-Day Weather Forecast

Almanac

Astronomy

Feb. 11, 2016 Rise Set
Actual Time
Civil Twilight
Nautical Twilight
Astronomical Twilight
Moon
Length of Visible Light
Length of Day
Tomorrow will be .
, % of the Moon is Illuminated

Today's Extremes

State Highs State Lows

Community

WunderPhotos

Upload Photos

1,892,172 photos uploaded!

WunderBlog® & News

Nearby

Air Quality

  Air Quality AQ Index Pollutant
Not available.

Snow Depth

Station Depth Elevation

Earthquake Activity

City Distance Mag. Time & Date
Minimum magnitude displayed is 2.5.

Coastal Water Temperatures

Place Temperature

Stations

Nearby Weather Stations

Station Location Temp. Windchill Dew Point Humidity Wind Precip. Elev Updated Type
                   

Watches & Warnings

There are currently no watches in effect.